User: anonymous   Login
Location: Maccacari
(45.1333°N, 11.1333°E)
Time: 05:19:29
(UTC+00:00)
Language:

DELTA 2 R/B (1) - Orbit

View from above orbital plane
View from above orbital plane
View from above satellite
View from above satellite

Ground track
Ground track

The orbit data is extracted from the following two-line orbital elements,

1 27665U 03005C   20339.17712267  .00000031  00000-0  45753-4 0  9996
2 27665  39.5743 143.5790 0009671 227.4740 300.7418 14.28538920932006
Epoch (UTC): 04 December 2020 04:15:03
Eccentricity: 0.0009671
inclination: 39.5743°
perigee height: 789 km
apogee height: 803 km
right ascension of ascending node: 143.5790°
argument of perigee: 227.4740°
revolutions per day: 14.28538920
mean anomaly at epoch: 300.7418°
orbit number at epoch: 93200

The dashed part of the orbit path shows where the satellite is in the earth's shadow,  

DLR